NUSAT-4 (ADA) (43195 NORAD) Tracking and Keplerian Element Data

This shows tracking and keplerian element data for the satellite.

Feedback or suggestion? Click here.




ElementValue
Catalog43195
NameNUSAT-4 (ADA)
Epoch Orbit31027
Epoch Day239.07387213
Epoch Year2023
RAAN39.3729
Inclination97.5803
Eccentricity0.0008356
Argument of Perigee280.7261
Mean Anonmoly79.3053
Mean Motion15.566478
Decay Rate0.00055579
L11 43195U 18015D 23239.07387213 .00055579 00000+0 77648-3 0 9992
L22 43195 97.5803 39.3729 0008356 280.7261 79.3053 15.56647800310279



Live tracking and technical data element details for NUSAT-4 (ADA) (NORAD 43195). NUSAT-4 (ADA) can be tracked NOW for your location showing map with azimuth and elevation plus other details from your city location.







IsCatalogInMostPopularTable: catalog: 43195, numindb: 776
Update: records affected: 1



GetName: 43195 NUSAT-4 (ADA)

Hit Count: updated at: Wed, 30 Apr 2025 16:49:42 GMT